LOT135 EPWA-LTFM

Flight info

Callsign LOT135
Flight time 2h 11m
Altitude 35000
Route XIMBA N195 NATEV DCT ROBTU DCT KENIN DCT KARIL DCT BUVAK DCT RIXEN
Aircraft B738/M-SDE2E3FGHIRWXY/LB1

Departure

Time 2026-05-01 09:25
Airport Warsaw Chopin Airport (EPWA)

Arrival

Time 2026-05-01 11:36
Airport İstanbul Airport (LTFM)
Time Latitude Longitude Altitude Speed Heading
2026-05-01 08:57 52.16957 20.97189 334 ft 0 kts 68°
2026-05-01 09:17 52.16956 20.97187 338 ft 2 kts 68°
2026-05-01 09:17 52.16947 20.97148 330 ft 4 kts 68°
2026-05-01 09:17 52.16930 20.97074 334 ft 4 kts 87°
2026-05-01 09:18 52.16937 20.97038 335 ft 4 kts 137°
2026-05-01 09:18 52.16955 20.97017 335 ft 0 kts 152°
2026-05-01 09:21 52.16898 20.97067 336 ft 11 kts 152°
2026-05-01 09:21 52.16835 20.97122 335 ft 10 kts 152°
2026-05-01 09:21 52.16676 20.97261 338 ft 19 kts 151°
2026-05-01 09:22 52.16510 20.97608 335 ft 20 kts 116°
2026-05-01 09:22 52.16391 20.97786 338 ft 0 kts 200°
2026-05-01 09:23 52.16358 20.97763 338 ft 5 kts 204°
2026-05-01 09:24 52.16314 20.97643 337 ft 8 kts 293°
2026-05-01 09:24 52.16317 20.97633 334 ft 0 kts 294°
2026-05-01 09:24 52.16572 20.96723 339 ft 110 kts 294°
2026-05-01 09:25 52.17444 20.93581 967 ft 172 kts 294°
2026-05-01 09:25 52.18307 20.89590 2186 ft 202 kts 266°
2026-05-01 09:26 52.17862 20.87421 2872 ft 206 kts 252°
2026-05-01 09:26 52.17271 20.82798 4160 ft 211 kts 261°
2026-05-01 09:26 52.16954 20.80433 4802 ft 216 kts 261°
2026-05-01 09:27 52.16300 20.75593 6048 ft 223 kts 261°
2026-05-01 09:27 52.15972 20.73130 6639 ft 226 kts 262°
2026-05-01 09:27 52.15424 20.70694 7169 ft 239 kts 235°
2026-05-01 09:28 52.14153 20.68937 7798 ft 241 kts 217°
2026-05-01 09:28 52.12783 20.67289 8322 ft 247 kts 219°
2026-05-01 09:28 52.11406 20.65572 8817 ft 254 kts 219°
2026-05-01 09:28 52.09983 20.63785 9309 ft 262 kts 219°
2026-05-01 09:29 52.07016 20.60051 10284 ft 277 kts 219°
2026-05-01 09:29 52.05461 20.58093 10693 ft 289 kts 219°
2026-05-01 09:30 52.02160 20.53932 11624 ft 314 kts 219°
2026-05-01 09:30 52.00399 20.51715 12105 ft 326 kts 219°
2026-05-01 09:30 51.96409 20.47767 13021 ft 350 kts 189°
2026-05-01 09:31 51.93974 20.47768 13533 ft 351 kts 161°
2026-05-01 09:31 51.91768 20.49372 14053 ft 347 kts 137°
2026-05-01 09:31 51.88363 20.54917 14968 ft 358 kts 126°
2026-05-01 09:32 51.86637 20.57909 15428 ft 367 kts 126°
2026-05-01 09:32 51.83046 20.64031 16338 ft 384 kts 127°
2026-05-01 09:32 51.81177 20.67175 16810 ft 391 kts 127°
2026-05-01 09:33 51.79271 20.70373 17286 ft 397 kts 127°
2026-05-01 09:33 51.77486 20.73701 17742 ft 395 kts 115°
2026-05-01 09:33 51.76211 20.81968 18742 ft 379 kts 86°
2026-05-01 09:34 51.76079 20.86245 19164 ft 384 kts 87°
2026-05-01 09:34 51.75923 20.90568 19604 ft 388 kts 87°
2026-05-01 09:34 51.75571 20.99219 20485 ft 395 kts 88°
2026-05-01 09:35 51.75380 21.03647 20943 ft 397 kts 88°
2026-05-01 09:35 51.74975 21.12543 21861 ft 402 kts 90°
2026-05-01 09:35 51.74251 21.16985 22305 ft 421 kts 108°
2026-05-01 09:36 51.72801 21.21147 22849 ft 425 kts 112°
2026-05-01 09:36 51.71370 21.25296 23325 ft 425 kts 110°
2026-05-01 09:36 51.69986 21.29505 23823 ft 425 kts 110°
2026-05-01 09:36 51.68607 21.33724 24260 ft 425 kts 110°
2026-05-01 09:37 51.67221 21.37923 24682 ft 425 kts 110°
2026-05-01 09:37 51.63280 21.45276 25539 ft 457 kts 141°
2026-05-01 09:37 51.60544 21.47784 26023 ft 458 kts 143°
2026-05-01 09:38 51.55035 21.52898 26911 ft 456 kts 141°
2026-05-01 09:38 51.52315 21.55490 27378 ft 455 kts 141°
2026-05-01 09:38 51.49593 21.58091 27843 ft 454 kts 141°
2026-05-01 09:39 51.44187 21.63268 28809 ft 450 kts 141°
2026-05-01 09:39 51.41490 21.65845 29311 ft 449 kts 141°
2026-05-01 09:39 51.38809 21.68390 29810 ft 447 kts 140°
2026-05-01 09:40 51.36138 21.70941 30322 ft 444 kts 140°
2026-05-01 09:40 51.30881 21.75924 31207 ft 439 kts 140°
2026-05-01 09:40 51.28255 21.78405 31648 ft 437 kts 140°
2026-05-01 09:41 51.25653 21.80862 32098 ft 433 kts 140°
2026-05-01 09:41 51.20498 21.85722 33023 ft 426 kts 140°
2026-05-01 09:41 51.17966 21.88127 33491 ft 421 kts 139°
2026-05-01 09:42 51.15460 21.90536 33973 ft 417 kts 139°
2026-05-01 09:42 51.13019 21.92868 34436 ft 412 kts 140°
2026-05-01 09:42 51.08120 21.97433 35165 ft 406 kts 140°
2026-05-01 09:43 51.03214 22.01995 35328 ft 413 kts 140°
2026-05-01 09:43 50.98192 22.06664 35349 ft 423 kts 141°
2026-05-01 09:44 50.93033 22.11442 35356 ft 434 kts 141°
2026-05-01 09:44 50.90398 22.13860 35346 ft 441 kts 143°
2026-05-01 09:44 50.87495 22.15721 35327 ft 462 kts 160°
2026-05-01 09:45 50.84269 22.16438 35408 ft 476 kts 173°
2026-05-01 09:45 50.77561 22.15440 35515 ft 492 kts 184°
2026-05-01 09:45 50.74138 22.14712 35551 ft 497 kts 183°
2026-05-01 09:46 50.67247 22.13385 35633 ft 505 kts 182°
2026-05-01 09:46 50.60220 22.12097 35782 ft 511 kts 182°
2026-05-01 09:47 50.56702 22.11453 35999 ft 510 kts 182°
2026-05-01 09:47 50.53188 22.10805 36297 ft 507 kts 182°
2026-05-01 09:47 50.49680 22.10156 36565 ft 505 kts 182°
2026-05-01 09:47 50.46184 22.09510 36759 ft 505 kts 182°
2026-05-01 09:48 50.42697 22.08867 36912 ft 506 kts 183°
2026-05-01 09:48 50.39198 22.08223 37103 ft 505 kts 183°
2026-05-01 09:48 50.35708 22.07581 37321 ft 503 kts 183°
2026-05-01 09:48 50.32223 22.06941 37342 ft 506 kts 183°
2026-05-01 09:49 50.25262 22.05667 37348 ft 505 kts 183°
2026-05-01 09:49 50.18290 22.04392 37338 ft 502 kts 183°
2026-05-01 09:50 50.11356 22.03128 37345 ft 500 kts 183°
2026-05-01 09:50 50.04494 22.01882 37350 ft 499 kts 183°
2026-05-01 09:51 49.97596 22.00634 37351 ft 498 kts 183°
2026-05-01 09:51 49.90687 21.99387 37352 ft 499 kts 183°
2026-05-01 09:52 49.83768 21.98142 37350 ft 500 kts 183°
2026-05-01 09:52 49.76884 21.96906 37363 ft 501 kts 183°
2026-05-01 09:53 49.69934 21.95663 37369 ft 503 kts 183°
2026-05-01 09:53 49.63004 21.94426 37353 ft 505 kts 183°
2026-05-01 09:54 49.55980 21.93175 37364 ft 506 kts 183°
2026-05-01 09:54 49.48958 21.91929 37362 ft 507 kts 183°
2026-05-01 09:55 49.41928 21.90684 37355 ft 508 kts 183°
2026-05-01 09:55 49.34958 21.89454 37363 ft 508 kts 183°
2026-05-01 09:56 49.27917 21.88215 37363 ft 508 kts 183°
2026-05-01 09:56 49.20897 21.86983 37360 ft 507 kts 183°
2026-05-01 09:57 49.13917 21.85762 37356 ft 506 kts 183°
2026-05-01 09:57 49.06918 21.84541 37355 ft 505 kts 183°
2026-05-01 09:58 49.01104 21.83530 37354 ft 505 kts 183°
2026-05-01 09:58 48.94140 21.82321 37356 ft 505 kts 183°
2026-05-01 09:59 48.87143 21.81773 37342 ft 496 kts 168°
2026-05-01 09:59 48.80397 21.83307 37349 ft 493 kts 166°
2026-05-01 10:00 48.73612 21.84846 37362 ft 493 kts 166°
2026-05-01 10:00 48.66788 21.86301 37356 ft 494 kts 167°
2026-05-01 10:01 48.60007 21.87719 37358 ft 495 kts 167°
2026-05-01 10:01 48.53168 21.89151 37363 ft 495 kts 167°
2026-05-01 10:02 48.46383 21.90573 37360 ft 496 kts 167°
2026-05-01 10:02 48.39515 21.92046 37361 ft 495 kts 163°
2026-05-01 10:03 48.33125 21.95342 37361 ft 479 kts 145°
2026-05-01 10:03 48.27518 22.00502 37343 ft 475 kts 140°
2026-05-01 10:04 48.21888 22.05755 37368 ft 478 kts 142°
2026-05-01 10:04 48.16178 22.10994 37374 ft 483 kts 142°
2026-05-01 10:05 48.10410 22.16235 37353 ft 486 kts 142°
2026-05-01 10:05 48.04642 22.21473 37358 ft 487 kts 142°
2026-05-01 10:06 47.98831 22.26731 37347 ft 487 kts 143°
2026-05-01 10:06 47.93025 22.31959 37355 ft 486 kts 143°
2026-05-01 10:07 47.87272 22.37128 37352 ft 486 kts 143°
2026-05-01 10:07 47.81470 22.42346 37350 ft 485 kts 143°
2026-05-01 10:08 47.73291 22.50987 37349 ft 478 kts 136°
2026-05-01 10:09 47.68117 22.57125 37348 ft 478 kts 136°
2026-05-01 10:09 47.62888 22.63252 37347 ft 478 kts 136°
2026-05-01 10:10 47.57634 22.69325 37348 ft 479 kts 137°
2026-05-01 10:10 47.49722 22.78384 37351 ft 480 kts 138°
2026-05-01 10:11 47.44429 22.84424 37350 ft 480 kts 137°
2026-05-01 10:11 47.39168 22.90423 37338 ft 481 kts 138°
2026-05-01 10:12 47.33861 22.96459 37323 ft 481 kts 138°
2026-05-01 10:13 47.25910 23.05463 37321 ft 482 kts 138°
2026-05-01 10:13 47.20588 23.11471 37327 ft 482 kts 139°
2026-05-01 10:14 47.12598 23.20463 37323 ft 482 kts 139°
2026-05-01 10:14 47.07257 23.26458 37322 ft 482 kts 139°
2026-05-01 10:15 47.01923 23.32431 37319 ft 482 kts 139°
2026-05-01 10:15 46.96599 23.38367 37318 ft 483 kts 139°
2026-05-01 10:16 46.91238 23.44328 37320 ft 483 kts 140°
2026-05-01 10:17 46.83233 23.53221 37319 ft 483 kts 140°
2026-05-01 10:17 46.75207 23.62097 37323 ft 483 kts 140°
2026-05-01 10:18 46.67171 23.70946 37312 ft 483 kts 141°
2026-05-01 10:19 46.61798 23.76843 37321 ft 483 kts 141°
2026-05-01 10:19 46.56428 23.82723 37316 ft 483 kts 141°
2026-05-01 10:20 46.48386 23.91500 37309 ft 483 kts 141°
2026-05-01 10:20 46.43015 23.97344 37305 ft 484 kts 141°
2026-05-01 10:21 46.34927 24.06115 37309 ft 484 kts 142°
2026-05-01 10:22 46.26816 24.14879 37314 ft 485 kts 142°
2026-05-01 10:23 46.18707 24.23607 37319 ft 485 kts 142°
2026-05-01 10:23 46.10573 24.32330 37314 ft 486 kts 142°
2026-05-01 10:24 45.99724 24.43912 37307 ft 486 kts 143°
2026-05-01 10:25 45.88848 24.55465 37312 ft 486 kts 143°
2026-05-01 10:26 45.83411 24.61220 37312 ft 486 kts 143°
2026-05-01 10:27 45.72557 24.72664 37315 ft 486 kts 144°
2026-05-01 10:28 45.64371 24.81259 37314 ft 487 kts 144°
2026-05-01 10:28 45.56170 24.89836 37307 ft 487 kts 144°
2026-05-01 10:29 45.47952 24.98399 37316 ft 488 kts 145°
2026-05-01 10:30 45.36994 25.09771 37318 ft 489 kts 145°
2026-05-01 10:31 45.25977 25.21146 37305 ft 490 kts 146°
2026-05-01 10:32 45.17688 25.29668 37314 ft 491 kts 146°
2026-05-01 10:33 45.06636 25.40981 37311 ft 491 kts 146°
2026-05-01 10:34 44.98302 25.49476 37319 ft 492 kts 146°
2026-05-01 10:34 44.92734 25.55135 37297 ft 493 kts 146°
2026-05-01 10:35 44.84369 25.63610 37305 ft 494 kts 147°
2026-05-01 10:35 44.78801 25.69234 37307 ft 494 kts 147°
2026-05-01 10:36 44.71082 25.77008 37311 ft 494 kts 147°
2026-05-01 10:37 44.65478 25.82636 37311 ft 494 kts 147°
2026-05-01 10:37 44.57099 25.91025 37315 ft 494 kts 148°
2026-05-01 10:38 44.51511 25.96603 37314 ft 494 kts 148°
2026-05-01 10:38 44.45892 26.02198 37315 ft 494 kts 148°
2026-05-01 10:39 44.40314 26.07739 37317 ft 494 kts 148°
2026-05-01 10:39 44.34702 26.13301 37309 ft 494 kts 148°
2026-05-01 10:40 44.29090 26.18849 37314 ft 494 kts 148°
2026-05-01 10:40 44.23456 26.24406 37304 ft 495 kts 148°
2026-05-01 10:41 44.17872 26.29901 37295 ft 495 kts 148°
2026-05-01 10:42 44.09426 26.38187 37302 ft 494 kts 149°
2026-05-01 10:42 44.03799 26.43691 37295 ft 494 kts 149°
2026-05-01 10:43 43.98162 26.49191 37296 ft 494 kts 149°
2026-05-01 10:43 43.92532 26.54672 37296 ft 494 kts 149°
2026-05-01 10:44 43.86919 26.60124 37295 ft 494 kts 149°
2026-05-01 10:44 43.81273 26.65594 37289 ft 494 kts 149°
2026-05-01 10:45 43.75655 26.71024 37292 ft 494 kts 150°
2026-05-01 10:45 43.69999 26.76479 37284 ft 494 kts 150°
2026-05-01 10:46 43.64347 26.81918 37289 ft 495 kts 150°
2026-05-01 10:46 43.58723 26.87316 37273 ft 495 kts 150°
2026-05-01 10:47 43.53062 26.92738 37280 ft 495 kts 150°
2026-05-01 10:47 43.48315 26.97274 37258 ft 495 kts 150°
2026-05-01 10:48 43.42650 27.02677 37276 ft 495 kts 150°
2026-05-01 10:48 43.37010 27.08042 37264 ft 496 kts 150°
2026-05-01 10:49 43.31313 27.13450 37269 ft 496 kts 150°
2026-05-01 10:49 43.25626 27.18836 37262 ft 496 kts 150°
2026-05-01 10:50 43.19960 27.24190 37260 ft 496 kts 150°
2026-05-01 10:50 43.14270 27.29555 37268 ft 496 kts 150°
2026-05-01 10:51 43.08577 27.34910 37246 ft 496 kts 150°
2026-05-01 10:51 43.02879 27.40260 37249 ft 496 kts 151°
2026-05-01 10:52 42.97431 27.45995 37242 ft 503 kts 138°
2026-05-01 10:52 42.95048 27.49549 37135 ft 506 kts 136°
2026-05-01 10:52 42.92695 27.53150 36854 ft 505 kts 136°
2026-05-01 10:52 42.90388 27.56677 36624 ft 502 kts 136°
2026-05-01 10:53 42.88049 27.60224 36369 ft 502 kts 137°
2026-05-01 10:53 42.85697 27.63756 36132 ft 502 kts 137°
2026-05-01 10:53 42.83338 27.67271 35894 ft 502 kts 137°
2026-05-01 10:53 42.80978 27.70771 35649 ft 501 kts 138°
2026-05-01 10:54 42.78604 27.74281 35412 ft 501 kts 138°
2026-05-01 10:54 42.76262 27.77738 35190 ft 501 kts 138°
2026-05-01 10:54 42.73895 27.81228 34958 ft 502 kts 138°
2026-05-01 10:54 42.71523 27.84725 34720 ft 502 kts 138°
2026-05-01 10:55 42.69156 27.88209 34496 ft 502 kts 138°
2026-05-01 10:55 42.66772 27.91717 34270 ft 503 kts 138°
2026-05-01 10:55 42.64403 27.95198 34013 ft 503 kts 138°
2026-05-01 10:55 42.62043 27.98663 33738 ft 503 kts 138°
2026-05-01 10:56 42.59665 28.02148 33482 ft 503 kts 138°
2026-05-01 10:56 42.57287 28.05631 33210 ft 504 kts 138°
2026-05-01 10:56 42.54894 28.09130 32967 ft 504 kts 138°
2026-05-01 10:56 42.52506 28.12619 32708 ft 505 kts 138°
2026-05-01 10:57 42.50115 28.16107 32457 ft 505 kts 138°
2026-05-01 10:57 42.47722 28.19594 32206 ft 506 kts 138°
2026-05-01 10:57 42.45322 28.23088 31961 ft 506 kts 138°
2026-05-01 10:57 42.42924 28.26575 31710 ft 506 kts 138°
2026-05-01 10:58 42.40522 28.30062 31469 ft 507 kts 138°
2026-05-01 10:58 42.38117 28.33550 31229 ft 507 kts 138°
2026-05-01 10:58 42.35731 28.37006 30968 ft 508 kts 138°
2026-05-01 10:58 42.33329 28.40484 30354 ft 503 kts 138°
2026-05-01 10:59 42.30955 28.43918 29712 ft 497 kts 138°
2026-05-01 10:59 42.28627 28.47285 29044 ft 483 kts 138°
2026-05-01 10:59 42.26386 28.50524 28384 ft 471 kts 138°
2026-05-01 10:59 42.24206 28.53666 27711 ft 461 kts 139°
2026-05-01 11:00 42.22025 28.56800 27052 ft 451 kts 138°
2026-05-01 11:00 42.19907 28.59840 26439 ft 449 kts 138°
2026-05-01 11:00 42.17768 28.62904 25811 ft 449 kts 138°
2026-05-01 11:00 42.15625 28.65975 25210 ft 448 kts 138°
2026-05-01 11:01 42.13489 28.69035 24615 ft 447 kts 138°
2026-05-01 11:01 42.11360 28.72081 24031 ft 446 kts 138°
2026-05-01 11:01 42.09070 28.74821 23339 ft 435 kts 154°
2026-05-01 11:01 42.06358 28.76407 22683 ft 420 kts 171°
2026-05-01 11:02 42.03523 28.76943 22023 ft 407 kts 185°
2026-05-01 11:02 42.00695 28.76987 21448 ft 403 kts 185°
2026-05-01 11:02 41.97910 28.77047 20982 ft 398 kts 185°
2026-05-01 11:02 41.95155 28.77130 20519 ft 393 kts 184°
2026-05-01 11:03 41.92470 28.77230 20138 ft 387 kts 184°
2026-05-01 11:03 41.89800 28.77338 19784 ft 380 kts 184°
2026-05-01 11:03 41.87173 28.77446 19443 ft 374 kts 184°
2026-05-01 11:03 41.84599 28.77547 19098 ft 368 kts 184°
2026-05-01 11:04 41.82066 28.77645 18860 ft 360 kts 184°
2026-05-01 11:04 41.79587 28.77737 18634 ft 351 kts 186°
2026-05-01 11:04 41.77256 28.77243 18368 ft 330 kts 208°
2026-05-01 11:04 41.75338 28.75722 18161 ft 313 kts 224°
2026-05-01 11:05 41.73891 28.73651 17903 ft 297 kts 237°
2026-05-01 11:05 41.72705 28.71452 17663 ft 287 kts 238°
2026-05-01 11:05 41.71574 28.69321 17439 ft 282 kts 238°
2026-05-01 11:05 41.70440 28.67204 17257 ft 278 kts 238°
2026-05-01 11:06 41.69296 28.65089 17068 ft 276 kts 237°
2026-05-01 11:06 41.68187 28.63052 16888 ft 274 kts 237°
2026-05-01 11:06 41.67069 28.61003 16711 ft 272 kts 237°
2026-05-01 11:07 41.64832 28.56909 16357 ft 273 kts 237°
2026-05-01 11:07 41.63701 28.54841 16183 ft 277 kts 237°
2026-05-01 11:07 41.62557 28.52750 16014 ft 278 kts 237°
2026-05-01 11:07 41.61430 28.50694 15827 ft 277 kts 237°
2026-05-01 11:08 41.60295 28.48625 15665 ft 276 kts 237°
2026-05-01 11:08 41.59162 28.46561 15482 ft 275 kts 237°
2026-05-01 11:08 41.56903 28.42448 15143 ft 273 kts 237°
2026-05-01 11:09 41.55780 28.40405 14979 ft 273 kts 236°
2026-05-01 11:09 41.54659 28.38369 14837 ft 271 kts 236°
2026-05-01 11:09 41.53541 28.36344 14686 ft 270 kts 236°
2026-05-01 11:10 41.51274 28.32339 14333 ft 272 kts 235°
2026-05-01 11:10 41.50129 28.30325 14124 ft 272 kts 235°
2026-05-01 11:10 41.49007 28.28350 13876 ft 269 kts 235°
2026-05-01 11:10 41.47886 28.26377 13613 ft 265 kts 235°
2026-05-01 11:11 41.46776 28.24424 13335 ft 263 kts 235°
2026-05-01 11:11 41.45678 28.22495 13077 ft 260 kts 235°
2026-05-01 11:11 41.44591 28.20583 12809 ft 257 kts 235°
2026-05-01 11:11 41.43516 28.18693 12551 ft 254 kts 235°
2026-05-01 11:12 41.42448 28.16818 12282 ft 252 kts 235°
2026-05-01 11:12 41.41389 28.14960 12029 ft 250 kts 235°
2026-05-01 11:12 41.40340 28.13121 11774 ft 248 kts 235°
2026-05-01 11:12 41.39279 28.11360 11520 ft 247 kts 226°
2026-05-01 11:13 41.37787 28.10226 11269 ft 251 kts 199°
2026-05-01 11:13 41.36044 28.09928 11032 ft 254 kts 185°
2026-05-01 11:13 41.34279 28.09966 10797 ft 253 kts 182°
2026-05-01 11:13 41.32520 28.10037 10550 ft 252 kts 183°
2026-05-01 11:14 41.30765 28.10091 10304 ft 252 kts 183°
2026-05-01 11:14 41.29015 28.10133 10091 ft 252 kts 183°
2026-05-01 11:14 41.27238 28.10166 10042 ft 257 kts 183°
2026-05-01 11:14 41.25471 28.09977 9984 ft 253 kts 202°
2026-05-01 11:15 41.24041 28.08741 10014 ft 244 kts 226°
2026-05-01 11:15 41.22836 28.07152 9991 ft 242 kts 226°
2026-05-01 11:15 41.21657 28.05609 9978 ft 240 kts 227°
2026-05-01 11:15 41.20467 28.04057 9993 ft 240 kts 226°
2026-05-01 11:16 41.19269 28.02500 9990 ft 240 kts 226°
2026-05-01 11:16 41.17988 28.01079 9982 ft 242 kts 213°
2026-05-01 11:16 41.16498 28.00046 9997 ft 243 kts 211°
2026-05-01 11:16 41.15008 27.98973 10005 ft 243 kts 212°
2026-05-01 11:17 41.13525 27.97876 10003 ft 245 kts 212°
2026-05-01 11:17 41.12035 27.96767 10007 ft 246 kts 212°
2026-05-01 11:17 41.10516 27.95680 9993 ft 249 kts 206°
2026-05-01 11:17 41.08869 27.95013 10013 ft 252 kts 197°
2026-05-01 11:18 41.07154 27.94486 10015 ft 253 kts 196°
2026-05-01 11:18 41.05424 27.93941 9986 ft 257 kts 197°
2026-05-01 11:18 41.03695 27.93378 10014 ft 255 kts 197°
2026-05-01 11:18 41.01970 27.92818 9982 ft 254 kts 194°
2026-05-01 11:19 41.00240 27.92699 9992 ft 244 kts 180°
2026-05-01 11:19 40.98570 27.92794 9977 ft 236 kts 182°
2026-05-01 11:19 40.96943 27.92836 9987 ft 234 kts 183°
2026-05-01 11:19 40.95286 27.92984 9984 ft 245 kts 168°
2026-05-01 11:20 40.93806 27.94151 9840 ft 261 kts 133°
2026-05-01 11:20 40.93055 27.96356 9567 ft 271 kts 95°
2026-05-01 11:20 40.93246 27.98832 9303 ft 271 kts 79°
2026-05-01 11:20 40.93580 28.01287 8991 ft 271 kts 81°
2026-05-01 11:21 40.93868 28.03753 8675 ft 271 kts 82°
2026-05-01 11:21 40.94141 28.06233 8366 ft 271 kts 82°
2026-05-01 11:21 40.94409 28.08708 8069 ft 272 kts 82°
2026-05-01 11:21 40.94670 28.11150 7769 ft 271 kts 82°
2026-05-01 11:22 40.94932 28.13616 7470 ft 271 kts 82°
2026-05-01 11:22 40.95195 28.16084 7176 ft 271 kts 82°
2026-05-01 11:22 40.95457 28.18553 6889 ft 270 kts 81°
2026-05-01 11:22 40.95716 28.21009 6624 ft 268 kts 81°
2026-05-01 11:23 40.95969 28.23412 6375 ft 260 kts 81°
2026-05-01 11:23 40.96206 28.25656 6117 ft 256 kts 81°
2026-05-01 11:23 40.96446 28.27949 5832 ft 249 kts 81°
2026-05-01 11:23 40.96680 28.30176 5592 ft 246 kts 81°
2026-05-01 11:24 40.96914 28.32407 5336 ft 245 kts 81°
2026-05-01 11:24 40.97143 28.34601 5159 ft 240 kts 81°
2026-05-01 11:24 40.97583 28.38872 4999 ft 227 kts 83°
2026-05-01 11:25 40.97646 28.40956 5018 ft 225 kts 88°
2026-05-01 11:25 40.97624 28.45096 5019 ft 227 kts 89°
2026-05-01 11:25 40.97614 28.47195 5011 ft 228 kts 88°
2026-05-01 11:26 40.97608 28.49221 5013 ft 229 kts 88°
2026-05-01 11:26 40.97603 28.53450 5023 ft 230 kts 88°
2026-05-01 11:26 40.97603 28.55577 5009 ft 232 kts 88°
2026-05-01 11:27 40.97603 28.57696 5006 ft 229 kts 88°
2026-05-01 11:27 40.97604 28.59801 5023 ft 227 kts 88°
2026-05-01 11:27 40.97606 28.61863 5045 ft 227 kts 89°
2026-05-01 11:27 40.97609 28.63948 5003 ft 224 kts 88°
2026-05-01 11:28 40.97608 28.65970 4976 ft 213 kts 88°
2026-05-01 11:28 40.97606 28.67917 5030 ft 211 kts 88°
2026-05-01 11:28 40.97610 28.69850 5010 ft 210 kts 86°
2026-05-01 11:29 40.99001 28.72759 5036 ft 200 kts 27°
2026-05-01 11:29 41.00312 28.73237 5017 ft 192 kts
2026-05-01 11:29 41.02940 28.73214 4873 ft 192 kts
2026-05-01 11:30 41.04267 28.73200 4735 ft 194 kts
2026-05-01 11:30 41.05622 28.73178 4501 ft 194 kts
2026-05-01 11:30 41.06973 28.73151 4217 ft 193 kts
2026-05-01 11:30 41.08302 28.73122 3961 ft 188 kts
2026-05-01 11:31 41.09583 28.73100 3740 ft 177 kts
2026-05-01 11:31 41.10769 28.73074 3487 ft 163 kts
2026-05-01 11:31 41.11860 28.73052 3257 ft 150 kts
2026-05-01 11:31 41.12851 28.73034 3080 ft 136 kts
2026-05-01 11:32 41.13767 28.73016 2895 ft 132 kts
2026-05-01 11:32 41.14700 28.73003 2703 ft 136 kts
2026-05-01 11:32 41.15653 28.72980 2537 ft 138 kts
2026-05-01 11:32 41.16609 28.72962 2315 ft 137 kts
2026-05-01 11:33 41.17540 28.72927 2134 ft 132 kts
2026-05-01 11:33 41.18460 28.72914 1973 ft 133 kts
2026-05-01 11:33 41.19387 28.72894 1788 ft 135 kts
2026-05-01 11:33 41.20340 28.72890 1592 ft 140 kts
2026-05-01 11:34 41.21320 28.72878 1390 ft 140 kts
2026-05-01 11:34 41.21955 28.72861 1255 ft 137 kts
2026-05-01 11:34 41.22881 28.72878 1022 ft 130 kts
2026-05-01 11:34 41.23752 28.72795 725 ft 125 kts
2026-05-01 11:35 41.24618 28.72777 589 ft 123 kts
2026-05-01 11:35 41.25500 28.72775 459 ft 128 kts
2026-05-01 11:35 41.26387 28.72755 369 ft 128 kts
2026-05-01 11:35 41.27263 28.72745 332 ft 122 kts
2026-05-01 11:36 41.28022 28.72738 333 ft 89 kts 359°
2026-05-01 11:36 41.28481 28.72743 331 ft 32 kts
2026-05-01 11:36 41.28622 28.72795 333 ft 20 kts 24°
2026-05-01 11:36 41.28712 28.72860 331 ft 0 kts 38°
2026-05-01 11:38 41.28716 28.72864 330 ft 3 kts 38°
2026-05-01 11:39 41.28731 28.72905 332 ft 6 kts 99°
2026-05-01 11:39 41.28681 28.72944 332 ft 13 kts 172°
2026-05-01 11:39 41.28558 28.72949 331 ft 22 kts 178°
2026-05-01 11:39 41.28376 28.72949 331 ft 29 kts 180°
2026-05-01 11:40 41.28193 28.72958 332 ft 18 kts 179°
2026-05-01 11:40 41.28079 28.72962 330 ft 16 kts 178°
2026-05-01 11:40 41.27968 28.72964 329 ft 16 kts 180°
2026-05-01 11:40 41.27860 28.72966 330 ft 15 kts 179°
2026-05-01 11:41 41.27756 28.72968 331 ft 15 kts 178°
2026-05-01 11:41 41.27657 28.72972 332 ft 14 kts 178°
2026-05-01 11:41 41.27562 28.72974 333 ft 13 kts 179°
2026-05-01 11:41 41.27471 28.72974 330 ft 13 kts 179°
2026-05-01 11:42 41.27382 28.72976 331 ft 13 kts 179°
2026-05-01 11:42 41.27296 28.72979 331 ft 12 kts 178°
2026-05-01 11:42 41.27212 28.72981 329 ft 12 kts 179°
2026-05-01 11:42 41.27131 28.72983 329 ft 12 kts 179°
2026-05-01 11:43 41.27051 28.72985 331 ft 11 kts 178°
2026-05-01 11:43 41.26976 28.72993 329 ft 11 kts 151°
2026-05-01 11:43 41.26954 28.73083 333 ft 10 kts 90°
2026-05-01 11:44 41.26957 28.73271 329 ft 10 kts 89°
2026-05-01 11:44 41.26957 28.73365 330 ft 11 kts 90°
2026-05-01 11:44 41.26957 28.73465 330 ft 11 kts 89°
2026-05-01 11:44 41.26959 28.73563 331 ft 10 kts 88°
2026-05-01 11:45 41.26961 28.73658 333 ft 10 kts 89°
2026-05-01 11:45 41.26962 28.73751 333 ft 10 kts 90°
2026-05-01 11:45 41.26963 28.73848 333 ft 12 kts 89°
2026-05-01 11:45 41.26964 28.73959 333 ft 12 kts 89°
2026-05-01 11:46 41.26967 28.74087 333 ft 16 kts 89°
2026-05-01 11:46 41.26968 28.74235 333 ft 15 kts 89°
2026-05-01 11:46 41.26972 28.74373 333 ft 15 kts 83°
2026-05-01 11:46 41.26973 28.74508 331 ft 14 kts 90°
2026-05-01 11:47 41.26926 28.74604 330 ft 13 kts 166°
2026-05-01 11:47 41.26835 28.74609 331 ft 13 kts 181°
2026-05-01 11:47 41.26746 28.74612 331 ft 13 kts 178°
2026-05-01 11:47 41.26660 28.74614 331 ft 12 kts 179°
2026-05-01 11:48 41.26578 28.74616 330 ft 12 kts 181°
2026-05-01 11:48 41.26500 28.74596 333 ft 11 kts 197°
2026-05-01 11:48 41.26444 28.74619 332 ft 8 kts 112°
2026-05-01 11:48 41.26439 28.74657 330 ft 2 kts 103°
2026-05-01 11:49 41.26439 28.74659 330 ft 0 kts 103°